Terug naar catalogus

EKRAN 19

ActiefCommunicatieGEO
NORAD 19683·PAYLOAD·🇷🇺 Russia

Gelanceerd Dec 10, 1988 vanaf Baikonur Cosmodrome

Loading…

TLE

VersSource: Space-Track

Epoch: Sep 14, 2026, 14:21 UTC

1 19683U 88108A   26257.59832778 -.00000128  00000-0  00000-0 0  9995
2 19683  13.4905 335.9674 0028638 221.3265 128.5506  0.96652205134433

Volg EKRAN 19 in realtime met AllMySat

Download on the App Store